LPE2478 SPJC-KLAX

Flight info

Callsign LPE2478
Flight time N/A
Altitude 34000
Route TELEB2F ISREN UL344 POGAM/N0463F360 UL344 ACA UJ3 KEDMA/N0457F380 UJ3 MZT UJ7 PPE J93 ASUTA DCT AMMOR OLAAA2
Aircraft B763/H-SDE3FGHIM3RWXY/LB1

Departure

Time 2026-05-07 03:01
Airport Jorge Chávez International Airport (SPJC)

Arrival

Time N/A
Airport Los Angeles International Airport (KLAX)
Time Latitude Longitude Altitude Speed Heading
2026-05-07 02:34 -12.02670 -77.11710 119 ft 0 kts 244°
2026-05-07 02:49 -12.02665 -77.11701 118 ft 2 kts 244°
2026-05-07 02:49 -12.02658 -77.11687 118 ft 2 kts 244°
2026-05-07 02:49 -12.02652 -77.11673 118 ft 2 kts 244°
2026-05-07 02:49 -12.02645 -77.11659 118 ft 2 kts 244°
2026-05-07 02:50 -12.02638 -77.11646 118 ft 2 kts 259°
2026-05-07 02:50 -12.02640 -77.11629 118 ft 2 kts 296°
2026-05-07 02:50 -12.02649 -77.11618 118 ft 1 kts 328°
2026-05-07 02:50 -12.02654 -77.11615 118 ft 1 kts 337°
2026-05-07 02:51 -12.02657 -77.11614 118 ft 0 kts 335°
2026-05-07 02:54 -12.02656 -77.11614 118 ft 0 kts 335°
2026-05-07 02:54 -12.02635 -77.11625 118 ft 5 kts 334°
2026-05-07 02:54 -12.02591 -77.11647 118 ft 8 kts 334°
2026-05-07 02:55 -12.02526 -77.11679 118 ft 12 kts 334°
2026-05-07 02:55 -12.02448 -77.11716 118 ft 9 kts 335°
2026-05-07 02:55 -12.02383 -77.11713 118 ft 9 kts 47°
2026-05-07 02:55 -12.02352 -77.11643 118 ft 12 kts 55°
2026-05-07 02:56 -12.02273 -77.11646 118 ft 14 kts 335°
2026-05-07 02:56 -12.02177 -77.11693 118 ft 16 kts 334°
2026-05-07 02:56 -12.02061 -77.11750 118 ft 19 kts 334°
2026-05-07 02:56 -12.01930 -77.11816 118 ft 21 kts 332°
2026-05-07 02:57 -12.01865 -77.11847 118 ft 9 kts 356°
2026-05-07 02:57 -12.01812 -77.11809 118 ft 10 kts 29°
2026-05-07 02:57 -12.01740 -77.11826 118 ft 12 kts 334°
2026-05-07 02:57 -12.01651 -77.11871 118 ft 16 kts 334°
2026-05-07 02:58 -12.01537 -77.11926 118 ft 20 kts 334°
2026-05-07 02:58 -12.01401 -77.11995 118 ft 23 kts 333°
2026-05-07 02:58 -12.01274 -77.12080 118 ft 21 kts 309°
2026-05-07 02:58 -12.01159 -77.12186 118 ft 23 kts 333°
2026-05-07 02:59 -12.01014 -77.12259 118 ft 20 kts 334°
2026-05-07 02:59 -12.00901 -77.12312 118 ft 14 kts 350°
2026-05-07 02:59 -12.00830 -77.12251 118 ft 14 kts 62°
2026-05-07 02:59 -12.00787 -77.12158 118 ft 8 kts 65°
2026-05-07 03:00 -12.00796 -77.12120 118 ft 6 kts 141°
2026-05-07 03:00 -12.00804 -77.12116 118 ft 0 kts 154°
2026-05-07 03:00 -12.00818 -77.12109 118 ft 15 kts 154°
2026-05-07 03:01 -12.01107 -77.11967 118 ft 77 kts 154°
2026-05-07 03:01 -12.01772 -77.11639 119 ft 133 kts 154°
2026-05-07 03:01 -12.02747 -77.11160 188 ft 174 kts 155°
2026-05-07 03:01 -12.03815 -77.10650 885 ft 170 kts 155°
2026-05-07 03:02 -12.04894 -77.10099 1395 ft 180 kts 154°
2026-05-07 03:02 -12.06035 -77.09508 1931 ft 189 kts 154°
2026-05-07 03:02 -12.07199 -77.08926 2631 ft 187 kts 154°
2026-05-07 03:02 -12.08353 -77.08357 3359 ft 183 kts 154°
2026-05-07 03:03 -12.09552 -77.07771 3561 ft 204 kts 154°
2026-05-07 03:03 -12.10924 -77.07106 3699 ft 233 kts 154°
2026-05-07 03:03 -12.12464 -77.06384 4058 ft 253 kts 160°
2026-05-07 03:03 -12.14231 -77.06185 4611 ft 265 kts 189°
2026-05-07 03:04 -12.15919 -77.06936 5372 ft 271 kts 218°
2026-05-07 03:04 -12.17086 -77.08440 6008 ft 281 kts 244°
2026-05-07 03:04 -12.17544 -77.10407 6108 ft 286 kts 271°
2026-05-07 03:04 -12.17177 -77.12375 6548 ft 286 kts 284°
2026-05-07 03:05 -12.16756 -77.14356 7396 ft 288 kts 279°
2026-05-07 03:05 -12.16441 -77.16352 8430 ft 285 kts 278°
2026-05-07 03:05 -12.16163 -77.18378 9046 ft 292 kts 277°
2026-05-07 03:05 -12.15905 -77.20436 9787 ft 294 kts 276°
2026-05-07 03:06 -12.15656 -77.22509 10384 ft 302 kts 276°
2026-05-07 03:06 -12.15303 -77.24729 10420 ft 331 kts 285°
2026-05-07 03:06 -12.14295 -77.26913 10824 ft 346 kts 305°
2026-05-07 03:06 -12.12644 -77.28703 11581 ft 350 kts 322°
2026-05-07 03:07 -12.10596 -77.30061 12326 ft 354 kts 328°
2026-05-07 03:07 -12.08524 -77.31422 13016 ft 359 kts 326°
2026-05-07 03:07 -12.06453 -77.32831 13770 ft 361 kts 326°
2026-05-07 03:07 -12.04371 -77.34269 14496 ft 365 kts 326°
2026-05-07 03:08 -12.02280 -77.35722 15172 ft 368 kts 326°
2026-05-07 03:08 -12.00152 -77.37206 15849 ft 372 kts 326°
2026-05-07 03:08 -11.98038 -77.38682 16540 ft 374 kts 326°
2026-05-07 03:08 -11.95883 -77.40187 17167 ft 378 kts 326°
2026-05-07 03:09 -11.93726 -77.41694 17795 ft 382 kts 326°
2026-05-07 03:09 -11.91514 -77.43240 18419 ft 385 kts 326°
2026-05-07 03:09 -11.89288 -77.44794 19072 ft 387 kts 326°
2026-05-07 03:09 -11.87072 -77.46341 19653 ft 391 kts 326°
2026-05-07 03:10 -11.84821 -77.47912 20283 ft 393 kts 325°
2026-05-07 03:10 -11.82571 -77.49483 20860 ft 396 kts 325°
2026-05-07 03:10 -11.80299 -77.51068 21433 ft 399 kts 325°
2026-05-07 03:10 -11.78018 -77.52657 22012 ft 401 kts 326°
2026-05-07 03:11 -11.75623 -77.54163 22541 ft 405 kts 329°
2026-05-07 03:11 -11.73223 -77.55624 23111 ft 407 kts 329°
2026-05-07 03:11 -11.70773 -77.57124 23615 ft 411 kts 329°
2026-05-07 03:11 -11.68349 -77.58609 24168 ft 413 kts 329°
2026-05-07 03:12 -11.65862 -77.60135 24675 ft 419 kts 329°
2026-05-07 03:12 -11.63370 -77.61664 25253 ft 423 kts 329°
2026-05-07 03:12 -11.60861 -77.63203 25882 ft 425 kts 330°
2026-05-07 03:12 -11.58337 -77.64751 26589 ft 424 kts 330°
2026-05-07 03:13 -11.55818 -77.66295 27351 ft 422 kts 330°
2026-05-07 03:13 -11.53330 -77.67820 27967 ft 423 kts 330°
2026-05-07 03:13 -11.50792 -77.69375 28496 ft 426 kts 331°
2026-05-07 03:13 -11.48272 -77.70918 29069 ft 428 kts 331°
2026-05-07 03:14 -11.45731 -77.72475 29632 ft 429 kts 331°
2026-05-07 03:14 -11.43179 -77.74038 30174 ft 431 kts 332°
2026-05-07 03:14 -11.37994 -77.77209 31180 ft 436 kts 330°
2026-05-07 03:15 -11.35432 -77.78777 31767 ft 435 kts 330°
2026-05-07 03:15 -11.32838 -77.80363 32346 ft 434 kts 329°
2026-05-07 03:15 -11.30270 -77.81934 32893 ft 434 kts 329°
2026-05-07 03:15 -11.27678 -77.83520 33418 ft 433 kts 329°
2026-05-07 03:16 -11.25127 -77.85079 33918 ft 432 kts 328°
2026-05-07 03:16 -11.19952 -77.88245 34014 ft 432 kts 328°
2026-05-07 03:17 -11.14838 -77.91371 34020 ft 430 kts 328°
2026-05-07 03:17 -11.09724 -77.94495 34019 ft 431 kts 328°
2026-05-07 03:18 -11.04554 -77.97550 34017 ft 432 kts 332°
2026-05-07 03:18 -10.99238 -78.00313 34020 ft 429 kts 331°
2026-05-07 03:19 -10.94005 -78.03056 34017 ft 425 kts 331°
2026-05-07 03:19 -10.88724 -78.05827 34014 ft 428 kts 331°
2026-05-07 03:20 -10.83457 -78.08589 34010 ft 428 kts 331°
2026-05-07 03:20 -10.78182 -78.11355 34002 ft 428 kts 331°
2026-05-07 03:21 -10.72888 -78.14130 33992 ft 428 kts 331°
2026-05-07 03:21 -10.67609 -78.16896 33982 ft 429 kts 331°
2026-05-07 03:22 -10.62337 -78.19656 33977 ft 430 kts 331°
2026-05-07 03:22 -10.57051 -78.22423 33970 ft 429 kts 331°
2026-05-07 03:23 -10.51738 -78.25203 33965 ft 429 kts 331°
2026-05-07 03:23 -10.46444 -78.27972 33964 ft 429 kts 331°
2026-05-07 03:24 -10.41154 -78.30739 33964 ft 430 kts 331°
2026-05-07 03:24 -10.35858 -78.33507 33964 ft 430 kts 331°
2026-05-07 03:25 -10.30561 -78.36274 33964 ft 430 kts 331°
2026-05-07 03:25 -10.25246 -78.39050 33963 ft 430 kts 331°
2026-05-07 03:26 -10.19941 -78.41820 33955 ft 430 kts 331°
2026-05-07 03:26 -10.14650 -78.44581 33936 ft 430 kts 331°
2026-05-07 03:27 -10.09341 -78.47350 33918 ft 430 kts 331°
2026-05-07 03:27 -10.04032 -78.50119 33909 ft 430 kts 331°
2026-05-07 03:28 -9.98756 -78.52869 33907 ft 430 kts 331°
2026-05-07 03:28 -9.93419 -78.55650 33906 ft 430 kts 331°
2026-05-07 03:29 -9.88137 -78.58402 33910 ft 430 kts 331°
2026-05-07 03:29 -9.82803 -78.61179 33910 ft 430 kts 331°
2026-05-07 03:30 -9.77520 -78.63929 33909 ft 430 kts 331°
2026-05-07 03:30 -9.72207 -78.66696 33914 ft 430 kts 330°
2026-05-07 03:31 -9.67351 -78.70169 33919 ft 428 kts 320°
2026-05-07 03:31 -9.62744 -78.73927 33913 ft 428 kts 320°
2026-05-07 03:32 -9.58073 -78.77760 33913 ft 428 kts 320°
2026-05-07 03:32 -9.53439 -78.81569 33913 ft 428 kts 320°
2026-05-07 03:33 -9.48795 -78.85387 33912 ft 428 kts 320°